WGS F9 (USA 275)

Last updated on Wed Oct 29 2025 00:02:49 GMT+0000 (Coordinated Universal Time)

1 42075U 17016A 25301.32703826 .00000000 00000+0 00000+0 0 9993 2 42075 0.0177 261.1388 0000251 235.6188 5.8754 1.00269854 31575
UTC large
Height (km)
Speed (km/s)
/
Latitude / Longitude
Inclination (degrees)
Orbital Period (minutes)
Azimuth
Elevation
Range (km)
Doppler Factor

Next 0 passes for location: London (51.5072 / 0.1276)

Sorry there are no passes over London.